Location: Betz
(49.1556°N, 2.9558°E)
Time: 05:55:00
(UTC+00:00)

Nadezhda 3 Rocket - Pass Details

Date: 18 September 2019
Orbit: 958 x 999 km, 82.9° (Epoch: 17 October)

Event Time Altitude Azimuth Distance (km) Brightness Sun altitude
Exits shadow 20:32:15 50° 87° (E) 1,219 4.1 -24.8°
Drops below altitude 10° 20:38:04 10° 18° (NNE) 2,721 6.5 -25.5°
Sets 20:40:40 0° 14° (NNE) 3,678 7.3 -25.9°
